Back to catalog

DELTA 1 DEB

AliveSSO
NORAD 21388·DEBRIS·🇺🇸 United States

Launched Jun 12, 1975 from Vandenberg Space Force Base

Loading…

Next Passes (next 24 hours)

TLE

FreshSource: Space-Track

Epoch: Sep 14, 2026, 09:55 UTC

1 21388U 75052DJ  26257.41329017  .00000058  00000-0  15253-3 0  9992
2 21388  99.5090 131.0679 0072574  38.5308 138.3017 13.50687633739379

Track DELTA 1 DEB in real time with AllMySat

Download on the App Store